Location: La Trinit�
(48.1620°N, 3.4512°W)
Time: 16:11:45
(UTC+00:00)

CZ-4C R/B - Pass Details

Date: 08 May 2021
Orbit: 609 x 1392 km, 63.4° (Epoch: 15 June)

Event Time Altitude Azimuth Distance (km) Brightness Sun altitude
Rises 22:22:57 0° 317° (NW) 3,832 7.0 -20.2°
Reaches altitude 10° 22:25:27 10° 314° (NW) 2,979 6.1 -20.4°
Maximum altitude 22:32:35 61° 237° (WSW) 1,405 3.2 -20.9°
Enters shadow 22:36:28 33° 171° (S) 2,066 3.6 -21.2°
